[[{"header":{"parameterUnit":"m.s-1","parameterCategory":1,"la1":30.2991,"la2":30.254,"lo1":-89.0895,"lo2":-89.0444,"dy":0.0017,"dx":0.0017,"nx":28,"ny":28,"refTime":"2024-02-08T03:00:00:Z","depth":0,"parameterNumber":2,"parameterNumberName":"U-component_of_WINDS"},"data":[0,0,0,0,0,0,0,0,0,0,0,0,0,0,0,0,0,0,0,0,0,0,0,0,0,0,0,0,0,0,0,0,0,0,0,0,0,0,0,0,0,0,0,0,0,0,0,0,0,0,0,0,0,0,0,0,0,0,-4.2874,-4.2874,0,-4.2936,-4.2937,-4.2937,-4.29,-4.2898,-4.2897,-4.2895,-4.2959,-4.2962,-4.2966,0,0,0,0,0,0,0,0,0,0,0,0,0,-4.2723,-4.2726,-4.2874,-4.2874,-4.2875,-4.2936,-4.2937,-4.2938,-4.29,-4.2898,-4.2896,-4.2894,-4.2958,-4.2962,-4.2966,0,0,0,0,0,0,0,0,0,0,0,0,0,-4.2787,-4.2727,-4.2874,-4.2864,-4.2864,-4.2936,-4.2937,-4.2938,-4.2901,-4.2898,-4.2895,-4.2893,-4.2957,-4.2961,-4.2966,-4.3051,0,0,-4.2982,-4.2984,0,0,0,0,0,0,0,0,-4.2784,-4.2793,-4.2865,-4.2865,-4.2865,-4.2908,-4.2907,-4.2976,-4.2902,-4.2887,-4.2895,-4.2892,-4.2944,-4.295,-4.2968,-4.3054,-4.3057,-4.2982,-4.2985,-4.2988,-4.2989,0,0,0,0,0,0,0,-4.2779,-4.279,-4.2898,-4.2866,-4.2866,-4.2857,-4.2863,-4.292,-4.293,-4.2888,-4.2885,-4.2893,-4.2944,-4.2963,-4.2969,-4.3058,-4.2982,-4.2987,-4.299,-4.2992,-4.3218,-4.322,0,0,0,0,0,0,-4.2776,-4.2787,-4.2896,-4.29,-4.2817,-4.2862,-4.2869,-4.2896,-4.2929,-4.2931,-4.2895,-4.2891,-4.2955,-4.2963,-4.2971,-4.3072,-4.2988,-4.2992,-4.2995,-4.3215,-4.3218,-4.3221,0,0,0,0,0,0,-4.2773,-4.2786,-4.2894,-4.2843,-4.2856,-4.2867,-4.2899,-4.2899,-4.2918,-4.2935,-4.2936,-4.2913,-4.2954,-4.2964,-4.3032,-4.3073,-4.2995,-4.2999,-4.3211,-4.3216,-4.322,-4.3274,0,0,0,0,0,0,-4.2768,-4.2785,-4.2817,-4.2844,-4.2859,-4.2953,-4.2901,-4.2902,-4.2927,-4.2922,-4.2952,-4.2954,-4.2952,-4.3024,-4.3037,-4.3079,-4.3003,-4.3207,-4.3213,-4.3218,-4.3269,-4.328,-4.329,0,0,0,0,0,-4.2763,-4.283,-4.2819,-4.2832,-4.2899,-4.2956,-4.2964,-4.2961,-4.2931,-4.2963,-4.2974,-4.2953,-4.3067,-4.3031,-4.3045,-4.309,-4.3205,-4.3211,-4.3218,-4.3264,-4.3278,-4.3289,0,0,0,0,0,0,-4.2808,-4.2833,-4.2821,-4.2899,-4.2925,-4.2949,-4.299,-4.2976,-4.3011,-4.3005,-4.3,-4.3007,-4.3077,-4.309,-4.305,-4.3173,-4.3131,-4.3141,-4.3162,-4.3175,-4.3185,-4.318,-4.3007,0,0,0,0,0,-4.2827,-4.2871,-4.2891,-4.2957,-4.2971,-4.2979,-4.3003,-4.2998,-4.3026,-4.3037,-4.3052,-4.308,-4.3122,-4.3149,-4.3189,-4.3271,-4.3277,-4.3309,-4.3319,-4.3328,-4.3336,-4.3379,-4.3394,-4.3243,-4.3243,-4.3243,0,0,-4.2866,-4.2886,-4.2913,-4.2967,-4.2987,-4.3032,-4.2988,-4.3038,-4.3072,-4.3044,-4.3108,-4.3121,-4.3152,-4.3227,-4.3261,-4.324,-4.3379,-4.3336,-4.3343,-4.3346,-4.3388,-4.3402,-4.3415,-4.3248,-4.3247,-4.3246,0,0,-4.2961,-4.298,-4.3037,-4.3058,-4.3089,-4.3094,-4.3108,-4.3135,-4.3142,-4.3207,-4.3187,-4.3227,-4.33,-4.3322,-4.3343,-4.3447,-4.3429,-4.346,-4.3514,-4.3557,-4.3569,-4.3579,-4.3615,-4.3628,-4.3469,-4.3469,-4.3469,0,-4.3006,-4.3073,-4.3069,-4.312,-4.3144,-4.3121,-4.3179,-4.32,-4.3243,-4.326,-4.3236,-4.3327,-4.3346,-4.3425,-4.3451,-4.3469,-4.3484,-4.3456,-4.3568,-4.3578,-4.3588,-4.3622,-4.3636,-4.3472,-4.3472,-4.3471,-4.3471,0,-4.3126,-4.3173,-4.3216,-4.3257,-4.3286,-4.334,-4.3344,-4.3374,-4.3367,-4.3375,-4.3441,-4.3463,-4.3507,-4.3526,-4.352,-4.3605,-4.3591,-4.3568,-4.3525,-4.3605,-4.3637,-4.3651,-4.3477,-4.3476,-4.3475,-4.3474,0,0,-4.3249,-4.3287,-4.3303,-4.3321,-4.3354,-4.3391,-4.3444,-4.3487,-4.3512,-4.3543,-4.3587,-4.365,-4.3629,-4.3652,-4.3649,-4.3687,-4.3767,-4.3659,-4.3659,-4.3677,-4.3861,-4.3877,-4.3892,-4.3756,-4.3759,-4.3761,-4.3858,0,-4.3344,-4.3437,-4.3435,-4.3521,-4.3565,-4.3545,-4.3592,-4.3617,-4.3626,-4.3664,-4.3674,-4.3717,-4.3687,-4.3701,-4.3738,-4.3749,-4.3803,-4.3742,-4.3796,-4.3798,-4.3787,-4.3909,-4.3926,-4.4017,-4.3871,-4.3873,-4.3874,0,-4.3467,-4.3501,-4.3592,-4.3618,-4.3637,-4.3678,-4.3717,-4.3754,-4.3783,-4.3786,-4.3814,-4.3804,-4.3859,-4.3816,-4.3891,-4.385,-4.3872,-4.3882,-4.3885,-4.3888,-4.384,-4.3914,-4.4046,-4.4059,-4.3894,-4.3893,-4.3891,0,-4.3546,-4.3615,-4.3678,-4.3694,-4.3727,-4.3757,-4.3772,-4.3798,-4.3824,-4.3858,-4.3875,-4.3915,-4.3937,-4.3969,-4.3971,-4.394,-4.4046,-4.4004,-4.405,-4.405,-4.4072,-4.407,-4.4207,-4.409,-4.4089,-4.4089,-4.4089,0,-4.3651,-4.3707,-4.3713,-4.3752,-4.3814,-4.3812,-4.3874,-4.3886,-4.391,-4.395,-4.3937,-4.3975,-4.3976,-4.4016,-4.4018,-4.4079,-4.409,-4.4094,-4.4093,-4.4094,-4.4093,-4.4107,-4.41,-4.4093,-4.4092,-4.4091,-4.4091,0,-4.3749,-4.3755,-4.3822,-4.3848,-4.3856,-4.3901,-4.3923,-4.396,-4.3967,-4.4019,-4.4031,-4.4044,-4.4089,-4.4095,-4.4149,-4.415,-4.4224,-4.4218,-4.4214,-4.4212,-4.4258,-4.4253,-4.4407,-4.4427,-4.4298,-4.4299,-4.43,0,-4.3815,-4.3857,-4.3888,-4.3914,-4.393,-4.3973,-4.3999,-4.3999,-4.4027,-4.4063,-4.4096,-4.414,-4.4176,-4.425,-4.4264,-4.4305,-4.4299,-4.435,-4.4305,-4.4304,-4.4298,-4.4295,-4.4298,-4.4358,-4.436,-4.4361,-4.4362,0,-4.3931,-4.3932,-4.397,-4.4009,-4.4041,-4.4072,-4.4101,-4.4124,-4.4127,-4.4159,-4.4206,-4.4234,-4.4288,-4.4333,-4.4373,-4.4389,-4.4376,-4.4376,-4.4389,-4.4389,-4.4384,-4.4386,-4.4236,-4.4372,-4.4371,-4.437,-4.437,-4.4369,-4.4014,-4.405,-4.4077,-4.412,-4.4142,-4.417,-4.4205,-4.4218,-4.4257,-4.4301,-4.4299,-4.435,-4.4378,-4.4431,-4.4451,-4.4491,-4.4474,-4.4492,-4.4497,-4.4501,-4.4505,-4.438,-4.4498,-4.4498,-4.4498,-4.4498,-4.4497,0,-4.4128,-4.4145,-4.4184,-4.4225,-4.4259,-4.4244,-4.4276,-4.4305,-4.435,-4.4377,-4.4412,-4.4466,-4.4509,-4.4527,-4.4569,-4.4598,-4.4593,-4.4609,-4.4606,-4.4609,-4.4518,-4.4502,-4.4612,-4.4612,-4.4612,-4.4612,-4.4612,-4.4612,-4.4191,-4.4252,-4.4257,-4.4328,-4.4345,-4.4394,-4.4414,-4.4439,-4.4461,-4.4521,-4.4556,-4.4568,-4.4591,-4.4635,-4.4674,-4.4678,-4.4694,-4.4712,-4.4714,-4.4628,-4.4616,-4.4605,-4.459,-4.4716,-4.4716,-4.4801,-4.4802,-4.4802]},{"header":{"parameterUnit":"m.s-1","parameterCategory":1,"la1":30.2991,"la2":30.254,"lo1":-89.0895,"lo2":-89.0444,"dy":0.0017,"dx":0.0017,"nx":28,"ny":28,"refTime":"2024-02-08T03:00:00:Z","depth":0,"parameterNumber":3,"parameterNumberName":"V-component_of_WINDS"},"data":[0,0,0,0,0,0,0,0,0,0,0,0,0,0,0,0,0,0,0,0,0,0,0,0,0,0,0,0,0,0,0,0,0,0,0,0,0,0,0,0,0,0,0,0,0,0,0,0,0,0,0,0,0,0,0,0,0,0,3.5254,3.5255,0,3.5354,3.5355,3.5357,3.537,3.5369,3.5368,3.5367,3.5465,3.5468,3.5472,0,0,0,0,0,0,0,0,0,0,0,0,0,3.507,3.5073,3.5253,3.5255,3.5256,3.5354,3.5355,3.5357,3.537,3.5369,3.5367,3.5366,3.5464,3.5468,3.5472,0,0,0,0,0,0,0,0,0,0,0,0,0,3.5158,3.5075,3.5253,3.5274,3.5277,3.5354,3.5356,3.5357,3.537,3.5369,3.5367,3.5366,3.5462,3.5467,3.5473,3.5534,0,0,3.5489,3.5491,0,0,0,0,0,0,0,0,3.5153,3.5165,3.527,3.5273,3.5276,3.5348,3.5327,3.5416,3.537,3.5335,3.5367,3.5365,3.5427,3.5435,3.5457,3.5538,3.5542,3.5489,3.5492,3.5495,3.5496,0,0,0,0,0,0,0,3.5147,3.516,3.5293,3.5271,3.5275,3.5278,3.5289,3.5344,3.5387,3.5338,3.5339,3.5351,3.5428,3.5452,3.5459,3.5544,3.5489,3.5494,3.5497,3.5499,3.5684,3.5686,0,0,0,0,0,0,3.5137,3.5155,3.529,3.5296,3.521,3.5283,3.5295,3.5326,3.5387,3.5395,3.5352,3.5351,3.5443,3.5453,3.5463,3.554,3.5494,3.5499,3.5502,3.5682,3.5684,3.5686,0,0,0,0,0,0,3.5133,3.5149,3.5286,3.5226,3.5244,3.5287,3.5323,3.5329,3.5353,3.5398,3.5405,3.5368,3.5443,3.5455,3.5517,3.5544,3.5502,3.5507,3.568,3.5683,3.5685,3.5695,0,0,0,0,0,0,3.5128,3.5148,3.5172,3.5227,3.5247,3.5339,3.5324,3.5332,3.5362,3.5362,3.5415,3.5422,3.5442,3.5509,3.5522,3.555,3.5511,3.5678,3.5681,3.5685,3.5692,3.5697,3.5702,0,0,0,0,0,3.5122,3.5168,3.5173,3.5189,3.5278,3.5341,3.5352,3.5376,3.5364,3.5389,3.5418,3.542,3.5539,3.5515,3.553,3.556,3.5676,3.568,3.5684,3.569,3.5696,3.5702,0,0,0,0,0,0,3.5112,3.5176,3.5181,3.5247,3.5289,3.5343,3.5374,3.5381,3.5426,3.5423,3.545,3.5462,3.5523,3.5548,3.552,3.5624,3.5606,3.5614,3.5606,3.5612,3.5617,3.561,3.5515,0,0,0,0,0,3.5118,3.5165,3.5218,3.5271,3.5292,3.533,3.5358,3.5373,3.5416,3.5433,3.5467,3.5508,3.5555,3.5585,3.563,3.5696,3.5709,3.5725,3.5729,3.5733,3.5739,3.5778,3.5787,3.5699,3.5699,3.5699,0,0,3.513,3.5171,3.5198,3.527,3.5304,3.5352,3.5344,3.5394,3.543,3.544,3.5502,3.5529,3.5576,3.5641,3.5671,3.5664,3.5766,3.5738,3.5741,3.5745,3.5783,3.5792,3.5799,3.5702,3.5702,3.5701,0,0,3.5177,3.5212,3.5262,3.5297,3.535,3.5376,3.5388,3.5442,3.5461,3.5523,3.5534,3.5576,3.5655,3.569,3.5718,3.5783,3.5787,3.5796,3.5821,3.586,3.5867,3.5873,3.5898,3.5906,3.5802,3.5802,3.5802,0,3.5185,3.5258,3.5286,3.5337,3.5369,3.5385,3.5436,3.5468,3.5532,3.5554,3.5545,3.5648,3.568,3.5755,3.5772,3.5793,3.5808,3.579,3.5864,3.587,3.5876,3.59,3.5909,3.5803,3.5803,3.5803,3.5803,0,3.5266,3.5317,3.5351,3.5416,3.5452,3.5503,3.5538,3.5571,3.5585,3.5611,3.5676,3.5717,3.5772,3.5791,3.5803,3.5869,3.5863,3.5858,3.5841,3.5885,3.5908,3.5918,3.5804,3.5804,3.5804,3.5804,0,0,3.5307,3.539,3.5402,3.5434,3.5495,3.5535,3.5587,3.5644,3.5672,3.5717,3.5762,3.5831,3.5829,3.5861,3.5877,3.5911,3.5962,3.5903,3.5904,3.5913,3.604,3.6043,3.6053,3.5966,3.5968,3.5969,3.6036,0,3.5362,3.5458,3.5486,3.5566,3.5615,3.5632,3.5678,3.572,3.5747,3.5792,3.5821,3.5871,3.5863,3.5883,3.5917,3.5949,3.5988,3.5944,3.6008,3.601,3.5996,3.6065,3.6068,3.6129,3.6045,3.6047,3.6048,0,3.5438,3.5488,3.5574,3.5633,3.5654,3.5695,3.5751,3.5794,3.5843,3.5861,3.5899,3.5913,3.5969,3.5949,3.6027,3.5997,3.6025,3.6045,3.6048,3.6054,3.6031,3.6075,3.6149,3.6158,3.6062,3.6061,3.606,0,3.5462,3.555,3.5613,3.5639,3.5709,3.5738,3.5768,3.5816,3.585,3.5898,3.5921,3.5974,3.6004,3.6045,3.6074,3.6057,3.615,3.6132,3.6167,3.6166,3.6185,3.6183,3.6266,3.6202,3.6202,3.6202,3.6201,0,3.552,3.5572,3.5626,3.5664,3.5724,3.5757,3.5814,3.5845,3.5889,3.5934,3.5951,3.5994,3.6029,3.6076,3.6099,3.6161,3.6174,3.619,3.6195,3.6189,3.6187,3.6207,3.6204,3.6204,3.6203,3.6203,3.6203,0,3.5556,3.5594,3.5665,3.5726,3.5743,3.5785,3.5837,3.5876,3.5905,3.5963,3.5978,3.6023,3.608,3.6114,3.6184,3.62,3.6269,3.6272,3.6253,3.6256,3.6289,3.6286,3.6387,3.6403,3.6328,3.6329,3.6329,0,3.5591,3.5632,3.57,3.5733,3.5765,3.5817,3.5853,3.5887,3.5923,3.5985,3.6016,3.6075,3.6124,3.6213,3.6252,3.6307,3.6312,3.6344,3.632,3.6313,3.6314,3.6312,3.6317,3.6348,3.6348,3.6349,3.6349,0,3.565,3.5668,3.5719,3.5779,3.5822,3.5869,3.5916,3.5942,3.5985,3.6024,3.6084,3.6122,3.6197,3.6255,3.6314,3.6344,3.6355,3.6357,3.6368,3.6362,3.635,3.6359,3.6265,3.6354,3.6354,3.6353,3.6353,3.6353,3.5688,3.5727,3.5782,3.5839,3.588,3.5924,3.5965,3.6001,3.6052,3.6117,3.6134,3.6197,3.6249,3.633,3.6362,3.6411,3.6406,3.6421,3.6426,3.6429,3.6431,3.6342,3.6422,3.6422,3.6422,3.6422,3.6422,0,3.5749,3.5787,3.584,3.5907,3.5953,3.5962,3.6015,3.6053,3.6109,3.6157,3.6206,3.6276,3.6334,3.6379,3.6438,3.6469,3.6475,3.6483,3.6482,3.6489,3.6432,3.6417,3.6478,3.6478,3.6478,3.6478,3.6478,3.6478,3.5787,3.5854,3.5879,3.5966,3.6003,3.6067,3.6098,3.6139,3.6178,3.6257,3.6306,3.6336,3.6383,3.6446,3.65,3.6512,3.6533,3.6541,3.6553,3.6499,3.6493,3.6487,3.6473,3.6545,3.6545,3.6607,3.6607,3.6608]}]]